EDT,Max TemperatureF,Mean TemperatureF,Min TemperatureF,Max Dew PointF,MeanDew PointF,Min DewpointF,Max Humidity, Mean Humidity, Min Humidity, Max Sea Level PressureIn, Mean Sea Level PressureIn, Min Sea Level PressureIn, Max VisibilityMiles, Mean VisibilityMiles, Min VisibilityMiles, Max Wind SpeedMPH, Mean Wind SpeedMPH, Max Gust SpeedMPH,PrecipitationIn, CloudCover, Events, WindDirDegrees
2013-3-1,31,28,24,30,26,21,100,89,82,29.91,29.81,29.66,10,6,2,17,10,,0.00,8,Snow,324
2013-3-2,25,23,21,23,20,18,93,88,78,29.91,29.87,29.81,10,5,1,15,9,,0.00,8,Snow,327
2013-3-3,22,20,19,20,17,15,93,86,78,29.89,29.83,29.77,10,6,3,20,8,24,0.00,8,Snow,333
2013-3-4,27,23,19,21,17,15,93,77,66,30.02,29.94,29.83,10,9,3,21,16,28,0.00,8,Snow,316
2013-3-5,32,28,23,22,20,18,85,78,64,30.11,30.06,29.99,10,9,5,13,8,,0.00,4,Snow,337
2013-3-6,38,32,27,27,24,21,78,69,57,30.12,30.04,29.94,10,10,10,12,7,20,0.00,7,Rain,71
2013-3-7,36,32,27,25,21,19,81,65,55,30.24,30.18,30.09,10,10,3,14,7,,0.00,7,Snow,7
2013-3-8,34,28,20,25,22,16,93,79,59,30.40,30.28,30.17,10,6,2,20,11,23,0.02,6,Snow,342
2013-3-9,43,30,18,28,24,15,100,79,56,30.43,30.37,30.30,10,9,1,8,3,,0.00,2,,352
2013-3-10,55,41,27,25,22,18,78,42,27,30.29,30.19,30.09,10,10,10,16,10,24,0.00,2,,158
2013-3-11,52,48,43,43,30,22,74,51,38,30.09,29.97,29.79,10,10,10,22,15,33,0.00,5,Rain,165
2013-3-12,52,43,34,47,38,29,97,87,74,29.93,29.82,29.75,10,8,3,20,11,28,0.29,8,Rain,321
2013-3-13,38,30,24,30,24,13,93,72,51,29.95,29.88,29.80,10,8,0,23,8,36,0.00,7,Fog-Snow,283
2013-3-14,32,24,17,18,11,5,86,63,33,30.04,29.97,29.90,10,8,2,33,20,43,0.00,5,Snow,306
2013-3-15,34,26,17,28,20,12,85,71,60,30.04,29.85,29.75,10,9,2,17,10,25,0.00,6,Snow,269
2013-3-16,29,24,18,20,16,12,86,71,61,29.99,29.87,29.82,10,9,5,12,7,,0.00,7,Snow,4
2013-3-17,31,21,11,19,15,9,93,76,56,30.35,30.17,29.99,10,8,1,13,4,20,0.00,5,Snow,343
2013-3-18,32,22,12,24,16,7,88,75,34,30.37,30.15,29.87,10,7,1,23,9,32,0.02,4,Snow,138
2013-3-19,43,34,26,32,26,17,93,81,53,29.86,29.76,29.67,10,8,0,23,15,30,0.01,8,Fog-Rain-Snow,236
2013-3-20,34,28,21,21,18,12,93,73,50,29.86,29.83,29.76,10,8,2,20,10,24,0.00,7,Snow,280
2013-3-21,30,22,14,21,14,7,92,68,43,29.86,29.77,29.70,10,9,2,16,6,,0.00,5,Snow,262
2013-3-22,31,27,23,25,21,19,88,79,72,29.92,29.79,29.69,10,8,1,21,10,24,0.00,8,Snow,286
2013-3-23,36,30,26,25,22,20,93,73,57,30.00,29.93,29.86,10,9,1,20,13,26,0.00,7,Rain-Snow,305
2013-3-24,37,30,23,25,21,19,92,67,47,29.99,29.89,29.74,10,10,10,10,6,,0.00,4,,357
2013-3-25,41,36,30,27,22,19,82,63,43,29.71,29.64,29.56,10,10,10,12,5,17,0.00,5,,56
2013-3-26,43,34,26,31,26,19,93,73,49,29.94,29.81,29.70,10,10,6,15,7,18,0.00,6,Snow,331
2013-3-27,46,36,28,33,29,24,100,83,48,30.06,29.98,29.90,10,7,0,18,7,29,0.02,7,Fog-Rain-Snow,307
2013-3-28,41,36,30,34,30,28,100,87,65,30.22,30.08,30.00,10,7,1,15,8,,0.01,8,Snow,320
2013-3-29,45,37,29,32,30,27,92,76,58,30.22,30.18,30.14,10,10,10,13,5,21,0.00,7,Rain,309
2013-3-30,50,37,24,27,23,18,96,65,30,30.22,30.16,30.10,10,10,10,13,3,16,0.00,1,,344
2013-3-31,52,42,31,41,32,19,93,72,40,30.10,29.85,29.68,10,8,4,20,8,29,0.08,4,Rain,163